This is the latest recevied weather packets stored in our database for station/object KO4APQ. If no packets are shown the sender has not sent any weather packets the latest 1 day(s).
| Time | Temp. | Humidity | Pressure | Rain* | Wind** | Luminosity | Snow |
|---|---|---|---|---|---|---|---|
| 1778068626 | 17.78° C | 66% | 1014.7 hPa | 0 mm | - | 111 W/m² | - |
| 1778067417 | 17.78° C | 66% | 1014.5 hPa | 0 mm | - | 48 W/m² | - |
| 1778067114 | 17.78° C | 65% | 1014.6 hPa | 0 mm | - | 21 W/m² | - |
| 1778066205 | 17.78° C | 65% | 1014.8 hPa | 0 mm | - | 25 W/m² | - |
| 1778065297 | 17.78° C | 65% | 1014.6 hPa | 0 mm | - | 11 W/m² | - |
| 1778064389 | 17.78° C | 64% | 1014.6 hPa | 0 mm | - | 1 W/m² | - |
| 1778064086 | 17.78° C | 64% | 1014.5 hPa | 0 mm | - | 1 W/m² | - |
| 1778063480 | 17.78° C | 63% | 1014.3 hPa | 0 mm | - | 0 W/m² | - |
| 1778063178 | 17.78° C | 63% | 1014.1 hPa | 0 mm | - | 0 W/m² | - |
| 1778062875 | 17.78° C | 63% | 1014.2 hPa | 0 mm | - | 0 W/m² | - |
| 1778062572 | 17.78° C | 62% | 1014.3 hPa | 0 mm | - | 0 W/m² | - |
| 1778060455 | 18.33° C | 60% | 1013.8 hPa | 0 mm | - | 0 W/m² | - |
| 1778060153 | 18.33° C | 60% | 1013.7 hPa | 0 mm | - | 0 W/m² | - |
| 1778059850 | 18.33° C | 60% | 1013.6 hPa | 0 mm | - | 0 W/m² | - |
| 1778059548 | 18.33° C | 61% | 1013.8 hPa | 0 mm | - | 0 W/m² | - |
| 1778058943 | 17.78° C | 61% | 1013.6 hPa | 0 mm | - | 0 W/m² | - |
| 1778057427 | 17.78° C | 62% | 1014 hPa | 0 mm | - | 0 W/m² | - |
| 1778057124 | 17.78° C | 62% | 1014 hPa | 0 mm | - | 0 W/m² | - |
| 1778056820 | 17.78° C | 61% | 1014.1 hPa | 0 mm | - | 0 W/m² | - |
| 1778056215 | 17.78° C | 62% | 1014 hPa | 0 mm | - | 0 W/m² | - |
| 1778055607 | 18.33° C | 62% | 1014.1 hPa | 0 mm | - | 0 W/m² | - |
| 1778055003 | 18.33° C | 63% | 1014.2 hPa | 0 mm | - | 0 W/m² | - |
| 1778054700 | 18.33° C | 62% | 1014.3 hPa | 0 mm | - | 0 W/m² | - |
| 1778054397 | 18.33° C | 62% | 1014.3 hPa | 0 mm | - | 0 W/m² | - |
| 1778054095 | 18.33° C | 61% | 1014.2 hPa | 0 mm | - | 0 W/m² | - |
* Rain latest hour (hover to see other rain measurements)
** Current wind speed in m/s (hover to see current wind gust speed)